Wetbulb
25.10 29.64 25.85 25.42 25.54 24.47 18.46 22.87 21.95 24.04 24.56 28.08 29.48 29.08 30.71 33.50 34.29 34.46 34.90 35.42 35.39 35.08 35.17 35.77 36.52 37.05 37.84 38.25 38.66 38.84 38.63 38.76 39.16 40.27 40.72 40.86 40.93 41.17 41.40 40.95 41.13 40.46 39.96 40.20
23.90 28.90 28.42 27.11 26.66 26.58 26.39 25.58 24.08 24.03 23.67 28.75 31.28 32.87 32.71 33.06 33.61 33.40 33.89 34.47 35.14 35.85 36.22 35.82 36.26 36.89 37.71 37.57 37.71 38.11 37.72 38.05 39.31 39.82 40.43 40.68 40.88 40.89 41.04 40.83 41.01 39.99 39.44 39.56
20.39 26.78 25.79 21.55 27.06 26.35 27.27 28.19 27.36 23.67 27.27 30.01 29.79 31.20 31.01 31.61 32.78 32.66 33.63 34.90 35.38 35.71 36.31 36.85 36.50 37.22 37.62 37.80 37.69 38.06 38.24 39.33 39.80 40.17 39.94 39.91 40.49 40.72 40.54 40.41 40.78 40.09 39.18 39.57
18.27 24.27 12.26 27.50 32.12 32.51 29.43 29.96 30.00 29.47 30.12 31.41 31.14 31.66 32.60 33.13 32.41 33.61 34.94 35.03 35.01 35.10 35.69 36.84 35.18 35.36 37.49 37.10 37.33 36.75 36.22 36.84 37.84 38.15 38.49 39.43 39.76 39.67 39.74 40.30 40.02 39.36 38.98 38.78
14.97 18.66 24.76 27.73 31.26 30.29 28.37 28.08 32.26 30.08 30.93 32.14 32.68 31.98 30.70 35.44 35.85 34.70 34.52 34.91 33.86 34.53 35.62 35.51 34.34 35.07 35.17 34.17 34.75 34.27 34.77 35.34 36.36 36.76 36.58 37.00 36.97 37.31 37.97 38.83 39.27 39.07 38.51 38.23
17.99 12.91 13.26 26.38 31.73 34.62 32.04 23.96 31.81 32.64 31.41 31.72 31.49 25.50 27.14 34.53 35.35 35.21 35.10 34.73 33.98 34.12 34.03 33.14 33.64 34.44 32.98 32.12 32.89 32.42 34.35 35.07 35.90 35.86 35.56 35.29 36.00 36.15 37.20 37.43 37.43 37.88 37.50 37.30
14.23 15.01 23.57 30.82 33.87 33.69 23.25 24.00 32.19 33.11 32.72 31.61 28.71 29.53 32.26 34.98 34.37 33.54 33.56 32.84 34.06 33.56 32.04 31.61 33.00 33.60 31.97 30.98 30.55 33.22 34.88 35.14 34.60 34.06 33.74 34.54 35.36 35.57 36.22 36.35 36.16 35.67 35.27 35.95
17.27 11.11 17.57 33.62 33.00 27.94 29.55 31.65 33.28 33.20 32.99 32.15 32.29 33.09 32.74 33.05 32.48 32.02 31.33 32.13 32.84 31.68 29.75 29.39 29.65 30.46 29.90 30.00 32.16 32.86 33.43 33.42 33.23 32.68 32.78 33.50 33.71 33.85 34.26 34.70 34.08 34.19 35.29 36.20
24.68 24.99 31.85 32.25 31.11 32.28 33.30 32.18 32.78 33.14 33.57 33.64 32.24 31.58 32.23 31.75 31.42 31.53 31.49 32.09 32.85 29.95 27.30 28.31 28.65 28.96 27.89 29.21 30.33 31.14 31.32 31.29 31.99 32.15 32.16 32.82 32.32 31.89 32.78 33.78 33.24 32.23 32.77 33.01
28.43 30.98 31.22 31.62 32.42 33.37 34.17 33.44 34.22 34.19 33.47 33.24 31.07 31.67 31.38 31.31 30.38 29.91 30.09 30.56 30.94 28.09 26.55 27.00 27.93 28.48 28.38 29.24 30.54 30.21 29.42 29.95 31.07 30.76 31.52 32.23 32.20 32.11 31.43 32.09 32.45 32.30 32.19 32.20
28.13 30.44 31.52 31.89 32.65 33.10 33.84 34.58 33.68 33.84 33.54 32.55 32.10 30.58 29.76 28.94 29.18 28.67 28.76 28.79 28.79 27.10 26.68 26.29 26.78 27.69 28.76 29.56 30.20 29.01 29.80 30.43 30.87 30.59 30.61 30.64 31.19 31.57 32.17 32.97 33.23 32.10 32.71 32.65
27.46 31.98 30.53 30.88 32.80 34.57 33.17 32.39 32.92 31.51 30.26 30.96 30.16 28.54 28.04 27.21 27.84 27.74 27.78 28.43 27.77 27.06 25.80 26.01 26.74 27.41 28.51 29.87 29.88 29.07 28.85 28.77 29.07 29.14 29.46 30.90 29.84 30.13 32.78 32.69 33.17 33.49 33.50 32.98
31.00 33.30 32.86 33.01 33.81 33.10 31.36 31.35 31.51 30.71 30.72 28.80 28.67 28.01 27.08 26.90 27.42 29.03 28.40 27.98 27.11 26.14 25.81 25.93 26.33 26.74 28.58 29.38 29.45 28.67 27.46 28.43 28.38 29.27 27.84 25.41 26.06 28.04 28.07 30.67 32.68 33.11 33.29 33.79
33.90 33.42 30.37 31.65 28.57 31.69 31.61 31.56 32.18 30.43 29.64 28.76 28.13 28.16 27.76 27.08 27.43 27.10 26.84 27.41 26.74 25.77 25.64 26.40 26.60 27.36 28.74 28.93 28.78 27.51 26.59 27.18 28.82 25.35 23.86 23.67 25.28 26.42 28.07 26.93 26.79 28.01 32.17 32.65
31.28 32.13 31.12 30.10 30.26 29.27 29.50 29.20 27.86 27.21 27.82 27.54 28.29 27.65 27.42 26.64 26.38 26.97 27.79 27.98 26.35 25.38 25.90 27.07 27.00 27.10 28.67 29.51 27.11 26.21 25.24 26.99 25.55 23.95 23.49 22.99 23.75 24.46 26.25 26.32 24.89 26.47 30.05 30.88
30.23 30.48 30.33 29.47 29.07 28.88 28.54 27.77 27.02 26.81 27.17 27.32 26.86 26.99 27.57 27.43 27.17 27.26 27.44 27.07 24.61 24.63 26.56 25.44 25.84 27.58 28.73 28.17 26.45 25.72 24.94 24.82 24.18 23.33 22.53 22.42 22.81 22.72 22.65 22.30 22.51 23.98 24.96 26.46
27.47 26.78 27.86 27.09 26.62 26.56 26.33 26.74 26.56 25.60 25.51 25.46 25.66 26.78 27.30 26.94 26.50 26.84 27.31 27.69 26.28 26.09 26.61 26.36 26.40 28.91 27.57 27.59 26.13 24.87 24.44 24.08 22.81 22.24 22.54 22.18 22.18 21.87 22.19 21.72 21.94 22.12 23.14 25.47
29.98 28.71 27.68 26.85 25.80 25.53 25.34 25.60 25.68 25.85 25.41 26.66 27.13 25.95 23.39 20.82 23.76 25.19 25.62 26.05 24.19 23.46 26.19 26.84 27.85 28.56 27.59 27.07 25.66 24.52 22.88 21.88 21.24 21.42 22.04 21.46 21.21 22.38 22.19 22.06 21.99 21.46 22.47 23.94
28.33 26.79 26.43 26.67 26.39 26.03 25.60 25.43 25.73 26.37 25.77 26.25 24.19 23.67 25.21 24.04 24.90 25.30 25.72 22.92 21.15 22.87 25.92 27.58 27.58 27.23 26.68 25.91 24.47 23.62 21.13 19.95 19.55 20.51 21.15 21.02 21.45 21.82 22.01 20.49 20.24 21.20 21.37 21.14
25.95 25.88 26.19 26.08 26.27 26.53 25.70 25.73 25.61 25.28 25.98 25.93 22.25 19.74 20.29 20.31 21.35 22.08 22.84 21.92 24.04 25.95 28.33 28.21 27.55 26.66 26.26 24.70 22.55 21.09 19.71 19.40 19.76 20.51 20.64 20.00 19.98 20.88 20.99 19.21 19.53 19.62 19.84 20.18
25.42 25.44 25.41 25.29 25.01 26.02 23.12 23.42 21.49 24.10 24.65 21.56 18.51 18.84 18.45 20.65 21.65 19.57 20.02 22.01 25.57 28.12 27.97 25.75 26.71 26.35 24.70 22.05 20.33 19.46 18.82 18.84 18.87 18.86 18.78 18.69 19.13 18.83 17.95 18.46 18.11 18.50 19.01 19.48
25.02 21.98 17.77 18.20 20.46 18.43 20.73 23.54 24.05 17.42 17.83 17.28 17.82 16.57 14.74 19.37 22.22 23.10 22.90 23.59 26.53 26.83 26.87 26.29 25.09 21.69 20.08 16.64 17.90 17.98 18.22 18.01 17.52 17.70 17.43 17.96 16.32 15.31 15.51 16.24 16.09 17.03 18.38 18.09
24.57 24.25 22.37 13.30 12.65 16.65 15.40 16.16 14.45 15.28 15.03 18.27 20.07 20.76 20.99 22.68 23.35 23.15 22.16 26.26 27.23 25.83 22.70 22.21 17.74 15.68 14.17 14.92 16.06 15.69 15.45 15.45 15.51 15.87 16.52 14.86 14.83 15.21 15.30 15.20 15.62 16.00 15.12 16.03
25.30 22.69 20.42 20.86 14.83 16.47 16.66 20.65 20.77 23.05 17.08 19.72 21.54 17.96 20.58 22.12 23.02 25.13 26.80 24.55 19.47 13.57 13.00 15.66 13.40 12.26 8.35 12.73 12.78 12.52 13.75 13.93 14.38 14.33 14.24 13.58 14.24 13.97 13.37 12.83 13.18 14.85 15.03 13.42
21.74 19.78 19.29 19.73 23.18 22.50 23.14 24.07 22.20 21.62 22.08 22.61 22.03 22.47 23.35 24.78 24.01 25.89 23.94 18.41 14.86 13.18 13.08 10.16 9.42 8.02 9.31 10.35 10.80 11.71 12.25 12.86 12.80 12.80 12.41 12.72 12.00 10.84 11.70 12.94 11.87 10.97 11.38 12.65
25.36 23.60 23.71 24.81 23.36 22.73 22.62 22.55 21.97 22.23 21.20 19.44 20.76 22.94 24.87 24.13 24.46 21.98 17.60 13.42 13.45 10.00 10.50 8.91 8.84 8.56 8.45 9.88 10.02 9.85 10.53 11.13 11.25 11.58 10.87 10.54 10.92 10.69 9.05 9.17 9.10 9.37 9.70 9.44
23.15 19.96 21.04 20.84 21.88 23.40 23.22 21.53 18.53 19.09 19.61 18.49 19.45 21.52 22.98 20.27 16.94 14.71 8.85 8.09 7.86 6.96 7.22 6.26 6.29 7.39 8.54 8.09 8.27 8.36 8.74 9.64 9.19 9.38 8.99 8.35 7.34 6.74 6.93 7.11 7.66 7.79 7.74 8.27
MSLP
1033.23 1033.10 1033.38 1033.90 1034.69 1035.58 1035.67 1035.17 1034.96 1033.64 1033.14 1032.29 1032.22 1032.49 1032.79 1033.15 1033.35 1033.42 1033.60 1033.73 1033.81 1033.80 1033.67 1033.42 1033.13 1032.76 1032.20 1031.71 1031.28 1030.93 1030.49 1030.13 1029.84 1029.41 1028.99 1028.64 1028.32 1027.88 1027.43 1027.31 1026.88 1026.60 1026.50 1026.11
1033.80 1033.48 1033.51 1033.61 1033.76 1034.17 1034.49 1034.16 1033.94 1033.50 1033.03 1032.67 1032.76 1032.96 1033.41 1033.78 1033.94 1034.07 1034.23 1034.42 1034.42 1034.41 1034.33 1034.16 1034.01 1033.64 1033.13 1032.60 1031.99 1031.41 1030.98 1030.56 1029.98 1029.48 1029.04 1028.55 1028.01 1027.46 1027.01 1026.55 1026.11 1025.79 1025.62 1025.43
1034.56 1033.93 1033.38 1032.71 1031.59 1032.28 1032.51 1032.43 1032.36 1032.96 1032.54 1032.86 1033.54 1033.84 1034.14 1034.42 1034.64 1034.80 1034.96 1035.06 1035.11 1035.14 1035.06 1034.88 1034.60 1034.14 1033.68 1033.14 1032.51 1032.00 1031.55 1031.06 1030.49 1029.94 1029.37 1028.71 1028.01 1027.29 1026.59 1025.96 1025.40 1024.99 1024.61 1024.31
1035.24 1034.58 1033.27 1030.51 1029.93 1030.13 1030.85 1031.28 1031.62 1032.00 1032.30 1032.88 1033.59 1034.30 1034.55 1034.72 1035.01 1035.36 1035.51 1035.62 1035.74 1035.67 1035.46 1035.24 1035.01 1034.56 1033.99 1033.41 1032.95 1032.47 1031.95 1031.46 1030.86 1030.23 1029.58 1028.85 1028.08 1027.29 1026.45 1025.61 1024.90 1024.20 1023.65 1023.24
1035.33 1034.80 1032.40 1030.10 1029.73 1029.85 1030.20 1030.72 1030.96 1031.69 1032.46 1033.19 1033.90 1034.36 1035.18 1035.26 1035.40 1035.71 1035.92 1035.98 1036.01 1035.92 1035.73 1035.50 1035.21 1034.69 1034.12 1033.50 1033.02 1032.57 1032.13 1031.65 1031.09 1030.47 1029.72 1028.96 1028.16 1027.34 1026.49 1025.37 1024.32 1023.46 1022.88 1022.42
1035.83 1034.93 1032.92 1030.26 1029.22 1029.04 1029.62 1030.52 1030.83 1031.39 1032.36 1033.18 1034.07 1034.79 1034.97 1035.35 1035.50 1035.73 1035.96 1036.05 1036.15 1036.07 1035.87 1035.52 1035.03 1034.60 1034.34 1033.78 1033.18 1032.67 1032.14 1031.62 1031.04 1030.48 1029.85 1029.09 1028.28 1027.47 1026.42 1025.51 1024.17 1023.08 1022.13 1021.60
1035.47 1034.59 1032.06 1030.02 1029.33 1029.26 1030.48 1030.98 1031.06 1031.52 1032.33 1033.17 1034.07 1034.44 1034.81 1035.20 1035.61 1035.80 1035.97 1036.09 1036.07 1036.02 1035.91 1035.55 1034.95 1034.53 1034.12 1033.66 1033.22 1032.66 1032.12 1031.56 1030.97 1030.36 1029.69 1028.92 1028.07 1027.35 1026.27 1025.25 1024.24 1023.04 1021.96 1021.19
1034.84 1034.47 1032.26 1030.27 1029.80 1030.13 1030.66 1031.03 1031.39 1031.98 1032.57 1033.38 1033.98 1034.50 1034.98 1035.32 1035.63 1035.80 1035.99 1036.09 1036.08 1035.98 1035.74 1035.30 1034.83 1034.44 1033.94 1033.41 1032.93 1032.39 1031.80 1031.17 1030.55 1029.94 1029.27 1028.43 1027.60 1026.76 1025.93 1025.03 1024.08 1023.11 1022.24 1021.28
1032.39 1031.78 1031.11 1030.86 1030.57 1030.36 1030.64 1031.15 1032.15 1032.48 1033.07 1033.60 1034.23 1034.72 1035.13 1035.45 1035.64 1035.86 1036.02 1036.09 1035.99 1035.83 1035.46 1035.09 1034.79 1034.32 1033.77 1033.18 1032.64 1032.06 1031.52 1030.88 1030.24 1029.64 1028.99 1028.18 1027.26 1026.40 1025.62 1024.97 1024.23 1023.35 1022.50 1021.66
1031.28 1031.39 1031.48 1031.36 1030.98 1031.03 1031.39 1031.92 1032.53 1032.90 1033.50 1034.06 1034.52 1034.91 1035.26 1035.66 1035.91 1036.04 1036.08 1035.98 1035.83 1035.71 1035.42 1034.97 1034.52 1034.19 1033.72 1033.13 1032.68 1032.12 1031.52 1030.74 1029.89 1029.15 1028.30 1027.61 1026.86 1026.02 1025.26 1024.51 1023.86 1023.15 1022.36 1021.62
1031.45 1031.80 1031.87 1031.82 1031.62 1031.86 1032.30 1032.65 1033.08 1033.54 1033.91 1034.26 1034.66 1035.21 1035.60 1035.91 1036.10 1036.22 1036.14 1036.00 1035.85 1035.61 1035.20 1034.88 1034.48 1033.96 1033.57 1033.10 1032.62 1032.08 1031.44 1030.52 1029.66 1028.94 1028.14 1027.20 1026.39 1025.60 1024.80 1024.14 1023.57 1022.89 1022.10 1021.44
1030.12 1030.27 1030.94 1031.78 1032.21 1032.49 1032.90 1033.31 1033.60 1033.97 1034.50 1034.78 1035.10 1035.57 1035.94 1036.26 1036.30 1036.26 1036.10 1035.78 1035.71 1035.58 1035.21 1034.82 1034.36 1033.86 1033.39 1033.01 1032.62 1032.06 1031.28 1030.42 1029.59 1028.88 1028.01 1027.14 1026.17 1024.88 1023.85 1023.36 1022.53 1021.94 1021.42 1020.92
1030.04 1030.61 1031.11 1032.11 1032.68 1033.01 1033.47 1033.94 1034.19 1034.44 1034.74 1035.22 1035.69 1036.02 1036.25 1036.47 1036.36 1036.20 1036.11 1035.73 1035.54 1035.40 1035.13 1034.68 1034.16 1033.67 1033.20 1032.77 1032.35 1031.79 1031.16 1030.32 1029.50 1028.68 1028.11 1027.43 1026.27 1025.06 1023.71 1022.20 1021.84 1021.04 1020.31 1019.88
1030.60 1031.18 1032.42 1032.86 1033.56 1033.82 1034.07 1034.47 1034.69 1035.11 1035.53 1035.94 1036.27 1036.42 1036.45 1036.53 1036.38 1036.16 1035.86 1035.48 1035.26 1035.06 1034.84 1034.44 1033.91 1033.31 1032.82 1032.37 1031.94 1031.35 1030.75 1030.04 1029.30 1029.04 1028.45 1027.55 1026.49 1025.31 1024.10 1023.06 1021.86 1020.57 1019.61 1019.08
1031.62 1031.64 1032.64 1033.59 1034.19 1034.80 1035.13 1035.45 1035.76 1036.06 1036.24 1036.49 1036.57 1036.74 1036.66 1036.49 1036.27 1035.77 1035.40 1034.98 1034.80 1034.75 1034.46 1033.97 1033.47 1032.85 1032.38 1031.90 1031.47 1030.91 1030.44 1029.62 1029.27 1028.79 1028.16 1027.45 1026.52 1025.39 1024.27 1023.29 1022.42 1021.25 1019.97 1019.25
1032.81 1033.20 1033.85 1034.58 1035.35 1035.70 1035.89 1036.25 1036.55 1036.87 1036.99 1037.07 1037.01 1036.84 1036.62 1036.32 1035.97 1035.42 1034.93 1034.49 1034.39 1034.13 1033.85 1033.52 1032.96 1032.30 1031.84 1031.57 1031.19 1030.64 1030.12 1029.59 1029.07 1028.43 1027.65 1026.91 1026.16 1025.29 1024.38 1023.60 1022.68 1021.66 1020.71 1019.97
1033.35 1034.42 1034.96 1035.59 1036.05 1036.37 1036.61 1036.85 1037.06 1037.20 1037.13 1037.03 1036.92 1036.60 1036.28 1035.94 1035.57 1034.98 1034.49 1034.02 1033.71 1033.45 1033.20 1032.94 1032.33 1031.83 1031.61 1031.20 1030.81 1030.36 1029.83 1029.18 1028.60 1027.93 1027.27 1026.56 1025.81 1025.06 1024.31 1023.60 1022.74 1021.85 1020.99 1020.33
1033.76 1034.62 1035.34 1035.90 1036.43 1036.78 1037.06 1037.21 1037.17 1037.10 1037.08 1036.88 1036.65 1036.58 1036.38 1036.01 1035.41 1034.78 1034.20 1033.83 1033.44 1033.12 1032.54 1032.03 1031.69 1031.35 1031.06 1030.68 1030.37 1030.06 1029.62 1028.95 1028.19 1027.48 1026.72 1026.11 1025.40 1024.64 1023.88 1023.25 1022.55 1021.66 1020.75 1020.10
1034.86 1035.52 1036.05 1036.41 1036.65 1036.93 1037.10 1037.18 1037.17 1037.07 1036.89 1036.88 1036.74 1036.57 1036.33 1035.87 1035.24 1034.56 1033.94 1033.53 1033.02 1032.48 1031.69 1031.37 1031.15 1030.94 1030.59 1030.24 1030.08 1029.78 1029.33 1028.53 1027.74 1026.99 1026.29 1025.55 1024.78 1024.07 1023.40 1022.97 1022.27 1021.46 1020.71 1020.05
1035.66 1036.04 1036.41 1036.73 1036.92 1037.09 1037.25 1037.16 1037.29 1037.35 1037.18 1037.00 1036.84 1036.61 1036.32 1035.63 1034.83 1034.21 1033.68 1033.19 1032.46 1031.84 1031.28 1030.94 1030.76 1030.58 1030.25 1029.94 1029.82 1029.57 1028.88 1028.13 1027.33 1026.48 1025.80 1025.19 1024.53 1023.76 1023.21 1022.71 1022.04 1021.31 1020.62 1019.98
1036.09 1036.43 1036.88 1037.22 1037.54 1037.50 1037.56 1037.64 1037.71 1037.54 1037.21 1036.98 1036.99 1036.58 1036.07 1035.21 1034.42 1033.80 1033.29 1032.57 1031.51 1031.33 1031.09 1030.86 1030.71 1030.35 1030.06 1030.00 1029.72 1029.10 1028.46 1027.75 1027.01 1026.29 1025.59 1024.90 1024.21 1023.64 1023.05 1022.42 1021.82 1021.13 1020.34 1019.65
1036.57 1037.13 1037.72 1037.79 1037.94 1038.01 1037.70 1037.65 1037.50 1037.37 1037.19 1036.88 1036.42 1035.89 1035.33 1034.72 1033.92 1033.26 1032.71 1032.41 1031.47 1031.30 1031.11 1030.86 1030.64 1030.54 1030.40 1030.20 1029.48 1028.83 1028.21 1027.54 1026.85 1026.13 1025.40 1024.69 1024.22 1023.49 1022.77 1022.12 1021.44 1020.75 1019.97 1019.40
1036.68 1036.93 1037.44 1037.92 1038.05 1037.96 1037.73 1037.41 1037.22 1037.20 1037.07 1036.63 1036.11 1035.57 1035.05 1034.38 1033.78 1033.13 1032.21 1031.66 1031.58 1031.53 1031.37 1031.12 1031.07 1030.81 1030.40 1029.89 1029.33 1028.70 1028.00 1027.32 1026.62 1025.91 1025.16 1024.72 1024.06 1023.26 1022.48 1021.74 1021.06 1020.40 1019.71 1019.01
1036.82 1037.11 1037.45 1037.61 1037.82 1037.69 1037.78 1037.27 1037.10 1036.75 1036.63 1036.06 1035.34 1034.93 1034.65 1033.87 1032.97 1032.66 1032.26 1032.02 1031.93 1031.81 1031.73 1031.47 1031.20 1030.82 1030.61 1029.77 1029.13 1028.44 1027.71 1027.03 1026.35 1025.66 1025.01 1024.35 1023.60 1022.97 1022.33 1021.60 1020.78 1019.92 1019.21 1018.74
1036.91 1037.07 1037.42 1037.60 1037.62 1037.65 1037.32 1037.20 1036.94 1036.56 1036.13 1035.47 1034.94 1034.54 1034.12 1033.74 1033.38 1032.50 1032.42 1032.37 1032.21 1032.10 1031.89 1031.65 1031.33 1030.83 1030.18 1029.52 1028.86 1028.11 1027.42 1026.77 1026.10 1025.44 1024.70 1023.91 1023.32 1022.68 1021.91 1021.15 1020.51 1019.87 1019.05 1018.25
1036.93 1037.42 1037.47 1037.47 1037.41 1037.35 1037.22 1037.12 1036.94 1036.38 1036.02 1035.49 1034.81 1034.19 1033.69 1033.34 1033.03 1032.93 1032.87 1032.81 1032.71 1032.53 1032.21 1031.73 1031.13 1030.55 1029.93 1029.27 1028.59 1027.86 1027.17 1026.43 1025.77 1025.05 1024.44 1023.71 1022.99 1022.30 1021.68 1020.98 1020.22 1019.49 1018.68 1017.88
1037.20 1037.56 1037.55 1037.49 1037.39 1037.24 1037.08 1037.07 1036.81 1036.36 1035.94 1035.49 1034.82 1034.06 1033.60 1033.20 1033.21 1033.31 1033.34 1033.27 1033.08 1032.73 1032.24 1031.75 1031.17 1030.36 1029.66 1029.11 1028.37 1027.67 1026.95 1026.18 1025.49 1024.87 1024.15 1023.47 1022.86 1022.15 1021.40 1020.64 1019.83 1019.04 1018.21 1017.29
Wind_Speed
2 1 3 4 4 8 7 5 7 2 6 4 4 2 3 6 5 7 7 7 7 7 7 8 10 10 10 10 10 9 7 6 7 8 8 8 10 11 11 10 11 12 9 9
2 1 1 4 5 8 5 2 7 3 5 3 4 6 7 6 6 7 7 7 9 9 10 10 10 10 10 11 11 9 9 9 9 9 9 10 11 11 11 13 13 12 12 11
3 3 2 8 10 11 6 4 7 6 7 5 4 6 5 5 6 6 6 7 7 8 8 8 10 10 10 10 8 10 10 12 12 13 13 13 13 13 13 14 14 14 15 12
3 2 1 5 2 7 6 5 7 4 4 6 9 6 6 5 5 6 5 6 7 6 7 6 6 9 8 9 9 10 10 12 12 13 14 14 15 15 15 14 14 14 15 15
6 4 6 1 3 7 8 6 6 8 7 10 10 5 4 4 4 4 4 4 4 4 5 6 7 8 8 8 9 10 11 12 13 14 14 15 15 16 16 16 15 15 14 15
2 5 7 4 2 5 4 4 6 8 9 10 7 2 3 4 4 5 4 2 3 5 4 5 7 6 7 8 8 10 12 12 13 13 14 14 14 15 13 14 15 13 15 13
2 2 9 5 2 2 5 8 5 6 6 6 5 3 4 5 3 3 2 2 4 5 6 7 7 7 7 7 7 9 10 11 12 12 13 13 15 14 16 14 13 13 12 11
3 3 9 1 1 6 4 3 5 5 4 5 6 6 5 5 4 1 1 2 4 4 6 6 6 7 9 9 10 11 11 12 13 13 12 12 16 16 17 16 15 15 13 10
9 6 1 2 2 1 2 5 3 5 4 5 5 4 4 3 1 1 3 4 4 5 6 7 7 8 11 11 12 12 13 14 12 14 13 14 16 16 12 12 11 13 10 10
3 1 2 2 4 5 4 6 5 4 5 5 4 5 4 2 1 1 4 5 4 6 7 8 7 9 10 12 12 12 13 14 15 15 14 13 12 12 10 10 10 10 11 9
2 2 4 3 4 6 6 6 6 4 4 4 5 4 4 1 2 4 5 5 5 6 7 9 7 9 10 11 11 12 13 13 13 11 13 13 12 11 11 11 9 12 11 9
6 9 4 4 5 5 6 5 6 7 5 5 4 4 3 2 3 4 6 6 5 6 8 8 9 10 10 10 10 11 13 11 12 11 11 10 12 14 16 15 20 17 18 14
3 5 9 9 6 4 8 6 6 6 5 4 3 3 2 2 4 7 7 7 6 8 9 8 10 10 9 9 10 11 12 13 11 11 11 13 13 12 12 14 20 21 17 17
12 13 8 3 5 6 8 6 6 6 6 5 3 2 3 5 6 7 8 7 6 7 8 9 9 10 9 8 10 11 12 16 8 9 11 12 12 13 12 11 13 13 16 11
7 8 8 9 8 7 7 6 7 5 3 2 3 5 6 7 7 9 9 8 6 7 8 8 9 10 7 8 11 12 11 9 9 10 10 11 11 12 11 10 12 12 12 5
11 13 12 11 9 8 7 7 6 4 4 4 5 6 8 8 9 10 9 7 5 7 9 8 9 9 7 8 10 10 10 13 11 10 11 10 10 10 10 10 11 10 10 10
14 8 7 8 6 6 6 4 2 2 4 5 6 7 7 8 8 10 10 8 6 8 9 9 10 7 7 8 9 8 9 11 13 10 10 10 10 10 9 9 10 10 10 9
11 9 8 7 5 5 3 2 3 4 4 6 7 7 7 7 10 11 11 9 8 7 10 9 8 7 8 8 8 8 8 10 11 11 10 10 10 10 9 10 11 11 11 10
10 9 7 6 5 3 2 4 4 5 6 6 6 8 9 10 11 11 11 9 10 9 10 6 7 8 8 8 8 6 9 11 11 10 10 13 11 11 9 9 12 11 11 11
8 6 6 5 4 3 4 4 5 5 6 6 6 6 8 10 9 10 10 11 13 9 10 9 7 8 8 9 7 7 10 11 11 11 11 11 11 12 8 12 12 12 11 10
7 7 6 5 4 5 4 3 4 5 7 6 6 8 9 11 11 9 9 9 13 7 8 6 6 6 6 7 9 9 9 10 10 11 11 11 11 10 12 11 12 11 11 11
4 4 1 2 3 4 3 4 4 4 6 7 8 7 6 9 11 11 9 9 8 7 5 5 5 6 8 11 8 9 10 10 10 10 10 9 11 11 11 11 11 11 11 10
4 2 0 1 2 4 5 4 4 3 6 7 10 11 9 9 8 9 10 6 3 5 5 5 7 9 12 8 8 9 9 10 10 10 9 10 10 11 11 12 12 12 11 11
2 1 2 2 2 2 4 5 6 6 6 8 9 6 7 9 10 5 6 5 5 5 4 6 8 11 9 7 8 8 9 9 10 10 11 13 10 10 11 11 12 12 10 13
0 1 1 3 4 3 5 5 5 6 8 11 11 10 10 6 7 9 3 4 5 6 6 7 9 10 7 7 8 8 9 9 10 11 11 10 11 11 11 11 12 12 12 11
1 1 2 3 2 3 3 3 5 7 6 8 9 7 8 6 4 3 3 4 5 6 6 7 7 8 7 8 9 10 10 10 11 10 12 12 12 12 12 12 12 12 12 12
2 3 3 3 2 3 3 4 4 8 7 6 9 9 8 3 2 3 4 5 5 6 6 6 6 7 8 9 10 10 10 10 11 11 11 11 11 11 11 12 12 12 12 12
Wind_Direction
253 114 151 174 172 179 181 181 159 291 203 262 214 31 43 102 96 76 57 41 27 15 0 359 360 352 349 347 343 341 323 309 289 284 279 277 273 268 261 251 245 241 237 230
9 119 265 273 215 193 219 200 262 277 268 229 87 99 85 74 69 60 47 33 27 19 12 8 5 354 347 345 344 342 343 339 330 324 312 296 287 280 275 265 257 244 236 232
269 356 360 303 213 183 184 187 149 189 220 147 108 101 89 73 63 56 52 42 27 12 8 7 358 345 343 337 339 352 354 349 345 340 332 322 311 299 287 277 271 259 247 225
167 32 346 245 189 188 167 181 191 129 155 152 137 112 83 59 90 69 46 27 14 359 355 355 342 345 335 346 351 351 351 346 342 339 333 330 325 319 309 296 281 269 260 244
132 194 291 234 190 147 174 230 189 160 134 139 144 124 52 83 89 95 69 41 19 355 342 333 331 330 334 341 342 347 346 339 334 331 329 328 325 323 318 311 300 282 265 254
121 136 217 239 297 155 136 292 166 143 152 166 156 194 205 145 101 78 74 31 353 325 298 311 319 317 324 326 329 336 334 329 324 321 320 317 316 319 313 314 306 297 281 256
145 186 283 238 257 175 100 235 151 140 144 139 174 186 141 123 124 140 135 22 340 329 312 301 302 306 305 307 314 319 317 314 314 316 315 312 314 316 320 319 314 312 289 274
88 88 270 359 153 161 195 52 124 121 121 114 125 129 129 139 136 107 7 290 302 305 315 318 317 321 321 324 323 321 318 315 315 319 319 316 318 320 320 321 320 321 314 300
174 213 336 326 264 40 97 122 125 113 118 127 130 154 156 178 195 18 344 312 314 326 314 314 321 323 322 322 326 324 323 319 317 315 313 315 318 316 317 316 314 314 311 303
104 114 56 20 51 75 83 106 120 120 132 139 151 160 162 136 93 12 324 311 294 303 297 306 314 316 317 323 327 328 325 322 323 319 310 306 304 305 301 301 305 304 307 302
58 64 91 36 83 110 97 100 102 104 134 150 124 107 121 93 343 308 300 295 297 297 302 309 312 314 321 325 329 327 319 314 312 313 310 308 304 301 301 296 297 300 301 290
218 179 132 139 138 120 107 102 119 116 84 71 106 118 87 11 308 298 297 297 302 298 303 310 313 315 318 322 324 317 314 315 313 314 309 309 315 308 298 281 285 280 288 282
141 99 101 106 99 94 102 101 103 105 119 126 87 95 53 302 296 297 298 291 288 296 301 304 304 303 307 313 317 315 313 310 312 309 326 315 309 304 311 315 310 287 269 275
104 107 75 66 118 92 91 85 71 59 66 81 79 9 306 297 290 284 285 279 290 296 301 297 296 299 304 300 314 312 314 310 313 326 313 311 310 312 310 311 318 319 299 253
56 79 99 99 77 73 65 77 70 58 49 30 346 311 303 294 291 291 288 286 287 286 281 290 300 299 296 306 318 316 320 313 320 309 308 306 304 310 313 323 319 317 333 343
86 86 88 89 88 82 76 59 67 33 12 325 315 304 291 284 291 290 282 279 281 293 293 292 289 294 302 302 308 311 309 307 304 307 308 308 308 312 315 317 315 316 322 331
107 99 95 91 92 85 78 76 63 322 302 298 287 287 297 304 307 305 298 287 275 276 287 285 284 280 288 300 306 309 309 308 308 306 305 306 306 306 303 304 307 312 309 314
93 93 93 110 110 100 86 35 340 327 309 304 309 310 303 302 302 302 296 292 290 288 286 275 276 277 293 299 308 306 308 306 307 305 304 302 297 295 301 303 304 305 305 310
100 106 104 100 103 92 38 358 344 323 318 314 315 309 308 298 296 296 298 288 283 280 289 268 274 281 291 301 303 306 307 305 303 299 298 301 302 300 293 308 306 307 309 309
103 101 99 85 58 45 355 360 347 319 306 309 307 299 296 296 292 297 301 289 283 274 279 282 294 300 298 304 313 308 305 303 298 301 303 305 302 301 308 307 305 306 304 303
103 85 70 48 9 358 1 318 281 299 309 311 296 292 286 295 295 287 299 304 302 296 294 306 308 297 311 318 318 306 305 301 301 303 303 303 302 312 304 306 302 301 299 297
99 90 46 23 4 305 304 314 311 308 306 305 300 294 295 307 312 311 289 272 293 301 318 321 319 337 324 320 309 307 303 302 303 302 299 304 308 303 300 301 300 296 297 304
104 100 217 244 256 273 307 305 310 274 292 299 308 309 307 304 300 302 306 321 292 335 333 333 334 324 319 313 308 302 300 300 302 299 304 304 296 298 298 300 300 300 296 293
98 45 292 309 304 359 345 309 310 307 273 292 298 283 296 310 309 297 283 315 345 352 338 325 319 313 317 308 302 301 301 305 302 304 300 298 294 301 299 296 293 292 301 303
147 327 305 336 339 305 300 300 307 306 314 319 319 318 310 292 286 309 346 348 359 354 336 315 309 305 307 305 300 304 307 304 303 303 299 299 304 297 295 299 304 300 296 295
29 304 293 323 272 286 291 300 301 310 308 308 307 305 312 307 319 358 359 1 351 335 320 315 312 312 307 307 311 308 306 306 304 303 307 301 301 304 304 299 299 300 297 297
41 37 1 342 325 323 304 308 312 312 311 301 298 306 308 296 356 1 360 344 324 313 311 307 304 312 316 314 312 310 307 304 306 306 305 307 305 300 300 299 297 298 295 294